Wind_Speed
22 22 22 22 22 21 21 21 21 21 21 21 20 20 21 21 22 23 23 22 20 17 15 16 16 17 17 16 15 14 15 16 16 20 24 18 13 15 18 16 18 20 22 22 23 26 26 23 20 18 19 19 14 14 16 11 7 5 2 2 3 2 3 3 4 3 2 4 6 12 16 11 6 8 12 11 10 17 16 7 13 9 4 15 19 28 39 38
23 23 23 23 23 22 22 21 21 21 21 21 20 20 21 21 22 23 24 24 23 19 17 16 16 16 17 17 16 15 15 16 18 23 17 9 8 11 20 19 19 25 25 25 26 29 31 28 24 22 23 19 11 12 13 12 9 6 2 2 4 3 4 4 4 3 1 4 8 12 16 13 10 13 16 9 9 16 10 7 14 12 13 17 22 34 39 39
23 23 23 23 23 22 22 22 21 21 21 21 21 21 21 21 21 22 23 24 24 22 19 16 15 16 16 17 16 15 15 16 20 21 12 8 13 9 17 21 23 27 25 24 25 28 31 29 26 24 24 15 10 13 12 11 8 7 4 3 6 5 5 10 10 6 2 6 10 10 13 12 13 18 17 9 9 12 9 11 14 17 23 24 30 39 39 40
23 23 23 22 22 22 22 22 21 21 21 21 21 21 20 21 21 21 22 24 24 22 19 17 15 15 15 15 16 15 14 15 14 10 4 6 14 13 18 22 26 29 24 22 24 27 29 28 26 24 22 10 9 13 10 12 9 6 7 5 5 2 5 11 12 7 3 8 13 12 11 9 15 19 17 14 9 5 11 20 21 25 30 31 37 41 41 42
23 22 22 22 21 21 21 21 21 21 20 21 20 20 20 20 20 21 22 22 23 21 19 17 16 15 14 14 14 13 10 8 3 1 2 2 7 14 22 24 26 30 27 24 27 29 28 28 27 24 17 7 9 9 8 17 12 5 9 10 8 4 3 9 11 7 1 9 12 12 10 11 16 16 18 19 10 8 19 27 26 29 32 35 42 43 43 43
23 22 22 21 21 21 21 20 20 20 20 20 19 19 20 20 21 21 21 20 21 20 18 17 16 15 13 12 13 12 6 2 2 2 0 3 6 11 23 29 27 30 29 26 28 30 28 30 28 22 13 5 10 9 7 20 16 5 8 11 14 12 9 12 11 11 4 9 12 11 12 15 15 10 18 23 15 12 19 25 25 28 30 34 43 45 45 45
24 23 22 22 22 22 21 21 21 20 20 19 17 18 19 20 20 20 20 19 19 21 20 18 16 15 13 11 11 11 11 11 5 5 8 4 5 7 20 33 30 31 32 28 31 31 30 31 27 21 13 5 10 10 7 17 18 8 7 9 13 14 16 18 16 18 13 8 13 13 13 16 15 10 16 24 20 9 10 21 24 26 30 35 42 45 46 47
25 24 23 22 23 23 22 22 22 22 21 18 17 17 18 20 20 19 19 18 21 23 21 18 16 14 12 10 9 10 14 13 8 9 11 9 8 4 16 35 34 34 35 32 33 33 33 34 28 20 11 5 8 11 9 11 13 11 12 10 9 12 16 18 17 18 16 11 11 12 11 17 21 15 14 23 21 12 11 20 25 27 32 37 43 45 45 45
26 25 24 23 23 23 23 23 23 23 22 19 17 17 18 20 19 19 19 20 23 22 16 13 13 14 12 10 8 8 11 10 6 6 8 10 12 7 12 32 38 37 37 34 33 33 34 34 32 22 10 10 8 9 12 7 6 13 18 13 7 11 13 15 16 16 16 12 10 9 7 15 20 13 11 20 21 16 16 21 26 30 34 38 42 44 45 45
28 27 26 25 24 24 24 24 23 23 22 20 19 19 19 20 19 19 20 21 22 16 10 9 12 15 12 9 5 3 8 10 8 4 4 5 7 6 8 26 38 38 39 36 33 35 34 31 34 24 8 11 9 7 14 10 5 10 15 15 14 17 17 18 17 18 16 13 14 12 7 12 16 10 7 15 21 20 21 25 29 32 35 39 41 43 45 45
29 28 28 26 25 25 26 26 25 24 23 21 20 20 20 20 19 19 20 22 21 13 8 11 15 17 15 10 6 6 8 8 7 4 2 1 2 3 5 23 38 39 40 39 35 35 33 29 32 24 5 7 10 5 12 15 11 9 8 10 14 15 17 18 15 18 14 9 18 18 9 8 10 9 9 14 24 26 27 30 32 34 36 39 41 42 43 42
30 30 29 28 26 26 27 27 26 25 23 22 21 21 21 20 19 20 21 22 20 13 13 16 17 20 18 13 15 9 7 8 10 8 5 6 6 4 4 21 36 37 38 40 38 35 32 28 30 26 7 4 8 3 8 16 16 15 10 6 10 7 10 14 12 16 11 7 18 17 6 6 8 11 13 17 26 30 31 33 34 36 37 38 39 40 41 41
31 31 30 29 28 27 28 27 27 26 24 23 22 21 22 21 21 22 22 21 18 14 15 17 20 24 17 14 16 10 8 12 14 12 11 12 10 6 5 19 35 38 36 37 37 36 34 28 30 30 13 5 7 3 2 7 10 12 7 4 7 5 8 10 10 13 10 8 17 16 3 7 9 11 15 21 29 31 30 33 34 35 35 37 38 39 40 40
32 32 31 30 29 28 28 27 27 26 25 24 23 22 22 23 23 22 22 19 15 14 15 19 24 23 13 14 15 11 11 11 10 9 10 12 9 8 6 16 34 39 36 34 31 33 33 26 28 27 15 8 5 2 3 3 2 4 3 3 2 1 5 5 6 9 7 9 19 19 4 7 7 10 19 26 33 33 29 30 33 34 34 36 38 39 40 41
34 33 32 31 30 29 28 28 27 26 25 24 24 23 24 24 22 22 19 14 12 14 19 22 22 15 12 15 11 6 7 3 2 3 3 5 4 8 8 14 31 39 36 30 24 27 31 24 23 21 13 12 7 4 3 3 2 0 3 3 1 4 6 4 4 9 8 6 18 18 5 6 6 9 24 30 34 34 30 30 32 34 35 36 38 38 39 41
34 34 34 32 30 29 29 28 27 26 25 24 24 24 24 23 20 19 13 8 13 19 19 17 15 11 10 10 9 7 5 4 4 3 2 5 4 7 8 11 25 34 32 25 14 16 26 22 17 19 12 7 4 1 1 3 4 2 3 4 2 6 5 4 3 8 12 6 11 14 5 3 4 11 25 31 34 33 28 29 31 33 35 36 37 38 39 40
34 34 34 33 31 29 29 29 26 25 24 25 25 23 23 20 18 14 5 9 20 19 11 10 14 12 5 8 13 14 15 12 12 7 4 5 4 8 11 12 19 29 28 20 9 7 20 20 11 11 9 4 3 5 2 4 4 3 2 4 3 5 4 3 4 5 10 7 7 11 8 5 3 11 24 29 33 30 25 28 31 33 34 35 36 37 38 39
33 34 34 33 31 29 29 27 24 24 24 25 26 23 18 15 15 6 2 17 24 12 6 10 15 6 2 15 19 20 25 18 14 10 6 4 6 12 14 13 15 25 23 13 9 8 15 15 7 3 3 5 4 5 7 7 6 5 4 3 3 4 5 4 3 3 7 7 8 10 12 10 3 9 21 29 33 30 26 30 32 33 34 35 35 36 38 40
34 35 34 33 31 29 27 25 21 23 24 23 24 20 13 15 12 1 7 24 17 6 5 10 12 3 7 21 23 23 27 16 12 11 6 3 6 15 15 13 16 23 18 7 8 11 13 7 5 5 6 9 10 11 11 5 5 7 6 4 4 5 6 5 4 3 6 5 7 9 12 12 6 8 16 24 31 30 27 28 29 31 33 34 35 36 38 40
35 35 35 34 31 28 25 21 19 23 23 21 23 17 13 20 10 0 20 25 8 6 11 11 11 8 13 23 23 26 23 8 7 8 3 2 7 16 16 14 17 17 12 7 5 11 13 5 5 11 12 13 13 12 9 4 2 4 4 4 5 5 6 5 3 3 5 4 6 9 12 12 10 9 13 22 27 23 20 22 24 28 31 33 35 36 38 42
35 35 35 34 31 27 23 18 18 21 19 18 22 19 16 20 9 6 24 20 11 17 15 10 9 9 17 21 19 24 19 6 3 2 2 1 7 13 15 14 12 7 7 9 7 8 11 6 12 16 11 8 8 8 8 7 7 3 2 3 4 5 6 6 4 2 3 3 5 7 9 11 10 9 12 19 19 17 20 22 24 29 31 33 36 38 40 41
34 35 35 33 30 25 20 16 17 19 16 14 19 21 17 18 13 12 15 11 18 21 10 8 6 9 23 19 16 21 13 6 4 5 3 2 5 9 13 10 7 6 7 9 7 5 7 10 18 13 6 6 6 8 10 9 9 7 4 3 4 4 3 6 6 2 2 3 4 5 7 10 10 8 11 17 18 22 30 32 32 34 33 33 37 39 40 37
34 35 35 34 29 23 17 13 16 17 15 15 19 21 18 18 17 15 10 7 15 14 5 8 6 11 25 19 17 21 10 5 5 8 11 2 6 10 12 8 6 7 7 9 9 7 6 11 14 8 7 9 8 7 10 9 8 7 6 5 5 3 3 4 5 1 2 4 3 3 5 7 6 5 8 18 24 25 32 36 35 37 39 40 42 41 39 37
34 35 35 34 28 19 13 11 16 16 15 17 19 21 19 19 17 14 10 4 6 7 3 9 9 14 24 19 18 19 8 4 6 12 17 8 4 7 9 8 8 6 8 12 11 10 8 8 7 11 9 10 10 8 9 8 6 8 9 8 6 5 4 3 3 3 3 3 2 4 1 6 4 5 6 14 18 17 22 26 25 30 36 37 35 36 38 39
34 34 35 34 26 16 10 10 15 16 15 16 19 21 20 20 18 12 8 1 3 5 1 7 9 13 23 19 19 19 7 5 11 15 18 12 8 5 6 9 10 6 8 11 9 9 10 7 9 14 12 11 11 10 9 8 5 6 10 10 9 7 4 2 4 3 4 4 3 3 3 6 4 6 8 8 10 12 14 16 21 28 30 28 29 34 38 40
34 33 34 32 21 13 8 8 15 17 15 17 19 21 20 20 16 7 3 3 3 4 2 8 6 12 22 19 23 18 3 8 16 15 19 16 9 5 4 5 7 7 7 8 5 5 7 6 9 10 13 13 10 9 9 9 6 6 8 9 9 7 4 2 0 1 2 4 5 1 4 5 4 5 9 8 11 15 14 14 21 27 27 29 34 36 38 40
34 33 32 26 16 12 10 8 14 16 17 19 20 21 20 20 11 3 0 2 3 2 3 8 5 12 20 16 23 13 3 14 17 14 24 18 6 4 5 3 3 5 6 6 3 4 6 8 9 8 10 12 10 10 9 11 8 7 5 8 8 7 6 5 3 4 3 3 5 1 4 3 4 6 7 7 11 13 14 15 18 22 27 32 36 36 38 42
34 34 28 19 12 13 11 10 14 15 17 20 20 20 21 16 4 4 3 1 3 3 2 7 5 13 18 14 22 14 2 13 11 13 26 17 5 2 6 3 4 3 4 9 6 3 7 10 11 9 8 9 10 12 11 12 9 6 6 9 8 8 8 6 4 5 2 2 6 4 5 3 5 6 4 5 10 11 14 18 16 19 29 35 37 38 39 41
33 32 24 15 12 12 11 11 14 15 18 20 19 21 19 9 3 4 4 1 1 4 3 9 8 14 19 10 16 17 9 11 8 15 23 17 8 2 8 2 3 6 5 7 7 4 5 11 14 10 7 8 9 9 10 12 10 4 6 6 6 7 6 6 6 4 2 3 9 7 5 4 5 6 4 2 7 11 13 15 14 20 32 36 38 40 40 39
31 27 19 14 12 12 12 13 14 15 19 20 20 20 11 1 4 3 2 2 1 4 4 9 8 12 17 7 8 15 10 10 15 19 21 20 19 10 3 2 4 4 6 4 6 7 4 10 16 12 8 7 7 7 8 13 11 5 6 3 3 3 3 4 3 3 3 7 11 9 8 7 5 5 5 4 6 10 11 11 12 18 27 33 36 39 38 37
28 23 15 13 13 12 15 17 16 17 20 20 21 16 3 3 3 4 1 1 1 3 3 6 7 9 12 6 5 11 6 7 16 17 15 16 21 21 11 6 8 5 3 4 4 6 6 7 8 7 13 11 6 6 7 11 11 6 5 4 1 2 2 2 0 2 6 9 9 8 9 9 8 6 6 7 8 10 11 12 13 15 23 32 37 39 39 41
26 22 14 12 12 11 15 18 18 19 20 21 22 12 3 2 3 2 1 3 1 2 2 3 5 5 7 5 6 9 5 5 12 11 8 7 8 12 11 5 5 2 4 4 2 3 6 8 4 4 14 15 8 5 5 6 8 7 5 6 5 3 1 4 4 3 7 8 4 5 8 7 9 8 9 10 10 11 11 13 16 18 26 35 39 41 42 43
25 22 15 11 11 10 12 14 17 19 20 23 20 7 5 3 0 1 2 2 1 1 2 2 4 5 5 5 6 8 5 5 10 9 6 5 4 6 8 8 8 2 3 2 1 2 4 6 7 6 8 13 13 8 5 5 6 8 7 6 6 5 4 7 6 4 5 6 4 5 6 5 4 6 13 15 14 14 15 19 24 26 31 37 40 41 41 41
25 24 17 10 9 11 11 13 16 18 22 24 13 3 5 3 1 1 2 2 1 2 2 2 3 5 6 5 4 6 3 3 9 9 5 4 4 3 4 10 13 7 1 1 2 2 3 4 8 8 3 7 13 9 7 7 6 8 8 6 6 5 5 5 4 4 4 4 5 3 5 5 4 5 12 16 18 19 20 25 29 30 33 35 33 34 35 37
25 24 17 10 8 9 10 13 14 16 21 20 8 5 4 1 2 1 1 3 1 2 3 3 2 4 5 4 4 6 4 2 7 7 5 5 4 4 4 7 11 9 2 0 2 2 2 4 3 3 8 3 9 9 9 8 6 7 6 6 6 5 5 3 4 5 3 2 5 3 4 5 4 5 6 9 14 15 19 24 25 27 30 26 25 29 34 37
26 24 14 7 8 9 11 13 12 15 18 12 6 4 1 2 1 1 1 2 1 0 2 4 4 3 3 3 3 6 6 3 6 5 3 4 4 4 3 4 9 9 5 1 1 2 2 5 6 11 12 5 4 5 10 11 6 4 6 8 6 5 6 3 4 2 3 4 5 3 4 4 2 6 5 4 9 10 13 16 18 23 25 22 25 32 37 39
28 22 11 9 14 14 12 11 11 13 12 5 5 2 2 1 2 1 2 4 2 1 3 2 3 2 2 3 2 5 5 3 4 4 2 1 3 4 2 4 9 8 6 4 2 0 2 6 8 8 7 7 13 12 8 12 9 5 6 8 5 4 4 4 4 2 2 6 4 2 6 5 4 5 3 4 7 10 11 11 13 18 19 20 27 33 37 41
29 17 7 15 23 19 11 9 10 8 3 5 4 2 1 1 4 4 5 6 2 2 4 2 1 1 2 2 2 3 3 2 4 3 2 2 2 4 3 2 6 9 11 8 1 1 1 4 7 3 4 8 14 9 6 8 11 8 5 8 7 3 5 5 4 5 5 5 4 3 4 4 6 6 3 6 10 11 12 11 12 13 13 19 27 32 35 39
26 13 6 19 26 17 10 5 3 1 4 4 2 1 1 1 4 9 10 6 1 4 3 1 1 1 1 1 1 3 2 2 3 3 2 2 1 3 6 3 3 9 15 10 1 2 1 0 4 3 3 8 7 3 5 6 10 7 4 7 6 4 6 6 4 3 4 4 3 3 3 3 6 6 8 11 12 12 13 12 11 12 16 23 28 31 34 37
24 10 6 22 24 13 7 2 4 6 5 2 1 0 3 1 4 12 15 8 2 3 2 0 2 1 1 1 1 2 2 1 1 2 1 2 1 2 7 5 4 7 13 10 2 2 2 1 3 5 7 5 3 2 3 3 4 4 4 6 5 3 2 4 3 3 4 4 3 3 4 5 5 5 10 13 13 13 14 13 12 14 20 28 31 33 35 37
20 7 8 24 22 11 5 4 6 6 3 2 1 1 4 4 4 11 16 12 6 5 3 2 2 1 0 2 2 1 1 0 0 1 1 2 2 1 5 7 6 7 7 5 2 2 1 1 2 5 6 3 6 6 2 2 2 2 3 3 6 5 3 4 5 3 4 5 4 3 4 6 6 4 8 11 12 12 14 14 12 16 24 30 34 36 36 39
16 5 10 24 21 11 6 6 6 5 3 3 4 2 5 6 5 8 13 12 7 5 4 2 2 1 1 1 1 1 1 0 1 1 1 1 1 2 5 9 10 9 5 2 3 4 3 0 1 4 4 7 16 17 10 7 5 4 4 2 3 3 4 6 6 4 3 4 3 3 5 7 6 5 7 9 9 11 15 15 12 17 24 28 33 37 37 39
14 6 12 23 20 10 7 6 5 4 3 5 6 4 6 6 6 7 9 9 7 4 4 3 2 2 2 1 1 1 1 1 1 1 1 2 2 2 4 9 11 8 4 2 3 5 5 0 1 4 5 7 13 11 6 4 1 1 2 3 3 3 2 4 5 4 4 4 4 4 7 8 6 4 5 6 5 7 13 16 16 18 22 25 30 35 35 38
13 8 12 22 19 9 6 4 3 2 4 6 5 6 8 7 7 7 5 6 6 3 2 3 3 2 2 2 1 1 1 1 1 2 1 2 2 1 3 8 10 6 3 4 4 5 4 0 1 3 3 4 5 2 1 4 5 3 4 5 4 6 9 7 1 3 3 7 9 6 8 8 4 0 1 4 4 3 6 14 18 19 20 23 29 34 36 39
10 5 9 19 21 16 11 5 2 1 3 5 4 5 7 5 7 9 5 4 7 5 1 1 2 1 2 3 2 2 1 1 1 2 1 1 2 1 1 5 8 6 5 7 8 6 3 1 2 3 2 3 3 2 1 4 6 5 6 8 8 8 9 6 1 2 5 7 7 6 8 7 2 2 3 3 3 3 5 9 15 18 20 21 24 30 36 38
7 3 6 12 17 20 15 9 8 3 0 3 3 3 5 4 6 10 8 5 9 10 3 1 4 4 4 4 3 2 2 0 1 1 1 2 2 2 3 5 6 7 7 9 11 7 2 1 2 4 4 4 4 3 3 4 6 8 10 14 12 7 5 3 2 4 4 4 5 6 9 10 7 5 6 6 6 7 7 7 10 17 23 25 26 30 34 39
4 2 3 5 7 11 10 12 13 6 2 3 1 1 5 4 4 8 7 5 10 11 4 1 4 4 3 4 3 2 2 1 2 3 3 4 2 3 5 6 5 5 5 8 11 6 1 1 2 5 6 7 7 7 8 8 9 11 13 15 15 11 7 4 6 6 1 3 7 7 6 11 13 10 9 9 10 9 8 8 12 18 24 27 29 31 33 38
4 2 3 3 2 3 4 8 11 8 5 4 1 1 5 4 3 5 5 5 8 9 4 1 3 3 3 4 2 2 2 2 3 3 2 2 2 3 4 4 4 2 2 6 9 4 1 2 3 4 5 7 7 8 11 10 10 11 12 14 16 14 10 8 9 9 6 5 6 6 7 11 15 13 9 8 9 9 10 14 17 21 24 27 29 31 33 38
5 2 3 5 2 1 2 7 9 7 5 4 3 3 3 4 4 4 3 3 4 4 3 1 4 6 6 5 1 2 2 2 3 3 2 3 3 3 3 3 3 0 2 3 5 3 2 3 3 3 3 5 7 9 10 9 8 10 12 13 14 13 13 13 12 12 11 9 9 9 11 13 12 9 6 4 4 8 12 15 16 18 21 24 27 31 35 37
5 2 3 5 3 2 4 6 6 5 4 3 2 2 2 3 4 4 4 3 3 2 3 2 6 7 7 5 2 3 4 3 4 5 4 4 4 2 3 3 2 0 1 1 2 3 3 2 1 1 2 4 6 6 6 6 7 10 12 11 10 11 12 11 10 10 9 9 11 12 12 11 5 4 5 5 5 4 6 9 12 14 17 20 24 29 33 35
4 2 2 3 3 3 3 5 4 2 2 3 2 3 4 4 5 5 4 3 3 3 3 5 7 6 5 5 3 5 6 6 8 11 11 10 9 7 6 4 3 3 1 2 1 2 2 2 3 2 1 4 4 3 5 8 8 9 9 8 7 7 8 5 3 3 3 5 8 10 9 7 5 8 7 5 8 8 6 9 14 17 14 16 23 26 30 34
5 3 2 3 2 2 3 3 3 2 1 3 4 5 5 6 6 5 4 3 4 6 6 7 7 5 3 5 5 8 13 16 19 22 22 21 20 17 16 14 10 6 3 3 2 2 2 3 3 0 0 4 3 3 9 9 5 5 4 4 4 4 7 6 3 6 4 2 4 6 7 6 8 9 6 4 7 8 7 11 15 19 16 14 21 24 29 35
Wind_Direction
5 3 1 358 357 354 353 351 349 348 347 347 346 345 343 339 336 334 332 331 332 330 323 316 313 310 301 295 291 293 290 281 276 267 261 263 263 243 229 212 203 203 193 188 190 186 177 175 175 171 177 179 186 197 192 197 199 201 215 228 246 237 228 213 187 194 164 151 155 170 166 148 146 153 138 134 140 148 153 153 161 172 193 173 168 164 163 163
2 0 358 356 354 352 351 349 348 347 346 346 345 345 341 338 336 334 332 330 331 332 329 321 315 309 301 298 295 298 295 290 282 268 268 272 259 233 217 203 194 201 197 191 193 189 182 175 172 172 173 173 181 191 193 201 200 207 214 224 234 215 225 255 243 237 217 167 155 172 173 159 162 156 149 141 138 150 146 135 147 134 136 155 160 162 163 164
0 358 355 353 351 349 349 348 347 345 345 345 344 344 340 337 336 332 331 329 330 333 335 328 318 309 301 299 297 302 301 299 290 274 282 261 231 208 202 196 189 198 201 199 198 197 194 181 171 169 168 169 179 180 188 196 196 216 225 242 241 235 260 283 272 267 305 172 152 165 175 163 166 160 155 150 148 165 161 151 150 137 142 151 158 162 163 165
358 356 353 351 348 348 347 346 345 344 345 344 344 343 338 336 334 331 330 328 330 336 339 333 321 313 301 299 298 303 311 307 295 276 291 249 222 200 190 187 187 194 198 203 198 196 196 182 171 167 165 169 184 181 190 198 183 187 207 218 242 245 243 275 285 290 294 177 161 158 164 162 168 166 161 150 143 189 192 182 178 161 156 157 160 164 166 167
357 355 352 350 348 346 346 345 345 344 344 344 343 340 336 335 332 331 331 329 332 338 341 335 325 319 304 299 297 301 324 324 311 126 87 122 191 194 190 185 187 190 192 196 191 188 189 180 170 164 164 162 178 190 213 206 193 192 225 231 248 284 260 278 307 326 324 165 158 150 163 166 165 171 170 161 162 209 203 195 188 174 167 165 165 166 168 171
357 355 353 352 349 346 346 345 345 345 344 344 341 338 333 331 330 331 333 334 335 335 335 333 327 324 312 299 293 295 295 254 90 82 202 115 148 182 190 188 187 190 190 190 188 185 184 175 166 163 167 163 178 193 210 204 206 233 246 239 243 255 262 274 294 312 310 159 162 167 176 162 156 180 181 180 191 205 203 195 186 179 173 168 168 168 171 174
357 355 354 354 351 347 346 346 346 346 346 343 339 336 331 329 332 333 336 336 332 329 326 326 323 324 322 303 289 289 265 251 296 279 250 220 172 175 190 190 186 191 189 186 185 182 179 172 168 168 166 170 191 199 188 193 208 235 260 250 247 249 254 265 280 295 288 213 190 180 172 165 168 184 183 195 203 195 195 190 185 178 173 170 170 172 175 177
358 356 355 354 353 349 346 346 345 346 347 344 336 335 332 331 333 332 333 331 327 326 322 320 320 320 326 312 288 290 274 263 298 277 244 230 221 211 195 191 187 192 190 188 187 183 179 174 174 171 166 199 192 195 187 177 202 226 246 248 254 256 260 273 282 288 280 245 202 176 176 186 186 176 182 203 202 189 185 182 181 176 173 173 173 175 177 178
358 357 356 354 353 350 346 345 345 345 346 342 336 336 335 334 335 330 328 326 327 330 330 332 331 328 326 314 296 290 276 255 270 272 238 234 230 235 207 193 189 191 191 190 189 186 179 175 179 173 177 208 182 185 189 177 203 215 232 246 265 267 274 285 281 280 275 248 197 175 206 208 191 173 192 209 197 189 186 176 178 176 174 176 176 178 179 180
358 358 358 354 352 351 347 345 344 344 343 339 335 336 336 336 335 330 326 326 328 334 351 4 356 346 327 304 296 257 266 255 251 254 215 227 226 232 222 199 194 193 191 189 188 188 185 185 186 177 180 206 194 193 187 194 228 215 231 248 261 265 271 275 271 272 271 248 207 192 218 221 198 186 214 209 195 189 179 173 176 176 177 178 179 180 181 183
358 358 358 355 352 350 347 345 344 344 341 337 335 336 335 335 335 330 327 327 326 323 324 343 349 345 330 294 245 228 268 251 225 241 224 347 286 253 223 201 199 195 192 190 190 193 195 197 188 176 184 205 195 205 197 213 240 258 263 258 258 260 265 261 258 261 260 242 215 201 213 223 192 206 228 196 188 189 177 171 176 178 180 181 181 182 183 186
357 357 357 356 353 349 347 344 344 344 341 337 337 336 332 333 335 329 327 327 322 307 298 317 330 334 331 284 250 254 284 251 232 257 282 325 314 280 212 199 202 200 195 193 194 197 199 201 188 180 187 171 172 176 223 229 240 264 278 281 276 284 274 257 248 249 237 227 213 194 220 238 188 215 222 191 180 182 176 172 176 179 180 181 182 183 185 188
356 356 356 357 354 349 345 343 344 345 342 340 339 338 332 333 335 329 329 327 317 304 294 305 317 325 322 275 271 287 279 258 254 266 277 293 292 263 211 194 200 200 198 198 198 198 197 200 193 189 189 155 160 158 258 247 236 250 251 252 280 321 295 256 235 232 214 232 206 174 208 243 212 215 200 182 174 171 171 172 175 178 180 181 183 185 187 190
357 355 355 357 355 349 344 344 345 344 343 341 341 340 335 334 335 330 328 324 317 309 300 305 314 321 305 277 300 301 273 265 260 275 288 290 279 244 207 189 197 196 196 200 201 199 197 198 197 196 201 200 208 295 339 338 225 226 199 207 237 241 285 247 198 196 198 235 190 169 227 237 222 208 181 177 174 170 169 173 176 178 179 182 184 186 189 192
356 354 354 355 354 349 345 345 345 344 343 341 343 343 336 337 335 329 327 327 326 316 311 311 315 323 300 295 329 330 286 283 244 279 319 336 302 233 210 188 195 195 195 198 203 204 199 195 196 200 215 222 241 312 342 350 330 116 174 223 180 183 259 265 193 180 188 225 179 172 239 231 224 193 176 176 176 174 172 174 178 179 181 184 185 188 191 194
355 353 353 353 351 350 346 346 345 343 344 342 345 344 338 339 332 326 331 339 335 325 321 320 323 326 300 309 358 9 337 309 307 297 277 347 331 228 215 188 191 195 195 192 196 205 198 193 196 204 217 224 216 187 353 334 314 322 198 227 182 181 242 282 257 207 191 190 179 189 223 223 225 180 175 177 177 176 173 175 181 181 183 185 187 190 192 195
353 351 351 351 351 351 347 348 346 344 346 344 346 347 341 338 330 329 347 346 342 339 341 343 330 313 295 3 355 339 333 307 294 285 264 310 262 211 200 181 184 193 192 184 182 187 191 193 198 207 212 213 167 138 194 248 243 276 210 220 224 191 219 249 292 247 192 177 187 206 223 233 227 169 173 180 179 178 176 179 183 184 185 187 189 191 193 195
352 349 349 350 352 352 349 349 348 348 350 346 349 349 341 336 332 337 33 344 345 357 17 356 347 325 299 354 344 333 332 308 281 279 285 306 216 193 191 186 179 185 184 183 192 175 182 193 194 206 215 208 189 166 198 213 200 210 191 188 233 225 226 221 256 246 180 187 194 199 222 234 234 164 176 182 182 181 183 184 184 185 186 189 191 193 195 197
351 349 348 350 353 352 350 351 352 354 354 352 354 350 341 348 352 92 344 343 352 26 358 338 348 347 278 322 330 336 332 306 277 279 288 332 192 179 186 193 174 170 165 166 201 182 172 176 178 201 216 204 202 200 201 193 158 178 180 177 193 217 245 233 235 227 162 189 216 199 217 226 207 179 184 184 185 187 189 186 185 187 188 189 193 196 198 200
351 348 346 348 351 352 351 353 357 358 360 1 360 360 4 3 12 275 336 342 359 342 321 316 317 289 296 319 333 343 339 314 269 268 265 22 162 170 177 175 160 156 158 160 182 181 173 169 202 210 215 206 205 204 199 219 210 156 161 195 201 211 251 249 236 240 157 169 234 215 219 225 204 190 190 185 187 192 190 186 188 190 190 192 194 197 200 204
350 346 344 346 349 352 353 355 360 3 9 11 11 27 32 14 16 319 333 336 330 326 321 326 310 297 329 335 341 348 345 332 287 254 227 196 157 168 176 164 150 155 172 157 135 165 172 193 225 217 211 201 200 193 188 225 246 244 180 207 233 221 246 264 247 252 162 168 251 230 226 237 217 195 189 183 186 196 193 189 192 193 193 196 197 199 203 205
348 344 341 343 348 353 356 358 4 7 14 19 25 36 32 15 6 334 330 312 316 328 335 348 314 322 348 350 350 352 343 328 355 55 42 214 175 183 186 172 168 177 166 147 131 160 180 223 230 212 173 173 182 176 181 207 228 243 239 219 251 233 249 276 257 233 165 189 263 230 215 241 230 199 188 185 189 199 198 196 195 193 193 197 200 201 203 203
347 342 338 341 347 355 0 6 10 12 18 24 26 24 13 5 358 339 330 284 305 326 355 8 344 342 355 358 353 352 348 337 350 18 12 327 199 196 197 191 178 170 164 171 175 172 190 233 225 178 147 179 185 177 178 195 217 224 224 221 236 219 190 248 259 263 199 211 230 199 210 253 237 183 193 201 200 201 202 203 201 196 195 199 201 202 201 200
345 340 336 340 347 357 6 17 18 19 22 23 19 9 360 355 349 336 328 274 293 319 4 16 6 359 358 356 351 347 337 321 328 353 2 349 257 206 202 200 182 182 185 186 192 192 220 253 178 149 171 188 189 191 181 189 216 219 220 223 222 219 211 245 299 331 333 293 203 148 253 291 234 177 208 212 208 211 208 206 207 205 204 203 202 203 203 203
345 339 335 340 349 360 12 23 20 19 17 15 9 358 352 348 340 328 327 322 297 308 30 17 8 8 1 358 352 341 309 310 335 346 356 347 311 275 220 199 190 209 193 181 195 208 240 250 154 159 184 187 193 203 193 189 211 229 223 219 215 220 225 281 329 346 5 325 270 159 214 285 268 205 216 201 199 216 211 204 210 212 208 204 204 205 206 206
344 339 337 343 351 2 15 15 8 8 4 3 360 352 346 341 331 310 337 61 338 299 12 3 360 6 2 2 354 345 270 327 339 346 353 347 320 283 255 220 197 210 184 168 200 215 232 218 169 176 182 179 198 211 199 183 199 239 214 198 207 208 192 163 24 251 207 253 269 154 177 257 306 251 226 191 191 208 202 203 213 211 205 203 207 207 206 207
344 340 342 347 353 3 12 5 355 359 359 353 349 346 342 335 322 257 43 41 347 331 9 354 357 358 359 11 7 11 166 330 338 359 2 356 327 215 212 274 216 199 162 157 223 207 189 188 185 195 180 177 198 209 197 176 196 236 178 159 186 194 195 187 173 223 236 265 278 249 149 224 286 262 234 186 197 212 202 209 214 207 205 207 211 210 207 207
344 341 346 352 353 357 4 355 347 353 354 344 340 342 340 332 296 162 82 60 331 15 11 344 355 352 354 21 25 32 59 347 346 353 4 13 4 200 187 247 238 223 169 180 218 208 179 188 187 186 185 190 202 204 189 176 203 227 150 146 168 184 200 187 176 230 257 326 276 239 152 208 267 271 273 175 198 219 211 215 214 203 206 210 212 212 210 209
345 343 348 352 346 347 350 346 344 346 346 340 337 340 338 327 190 127 65 163 337 31 6 347 355 350 349 16 32 24 18 14 355 335 0 22 17 197 189 231 244 252 257 205 217 226 191 188 183 184 198 199 204 203 178 182 212 203 143 146 149 170 185 170 180 210 208 243 253 233 169 207 267 273 279 178 198 219 217 218 214 208 210 211 212 213 212 210
346 345 350 350 344 340 334 334 340 342 343 339 335 339 342 116 135 89 45 194 38 20 349 356 354 343 350 6 24 13 12 7 352 347 5 21 27 45 143 39 34 279 270 247 226 231 230 190 184 194 208 187 186 198 176 187 201 152 133 137 103 140 135 144 176 155 198 244 244 224 176 188 253 261 237 215 204 208 209 217 216 212 214 214 215 214 212 209
347 342 345 350 348 343 336 335 340 342 343 340 335 340 6 137 79 102 163 238 57 7 349 3 352 344 360 22 19 1 359 356 354 1 9 15 28 32 27 25 18 354 264 267 249 236 248 213 193 204 202 180 160 196 194 192 192 163 154 152 119 320 88 133 59 127 217 241 241 214 173 184 232 252 235 229 224 211 204 211 211 208 212 215 216 215 212 210
347 338 334 343 344 345 344 339 339 341 343 342 337 341 118 132 12 141 268 330 9 355 358 346 342 348 352 15 28 357 339 357 357 4 11 9 35 39 39 35 356 338 214 258 275 238 238 223 233 233 201 185 167 191 203 195 193 184 168 150 173 230 160 194 216 207 226 245 242 177 155 192 230 239 239 235 232 222 209 212 211 207 210 212 214 213 212 211
348 337 325 329 335 333 336 333 335 339 343 342 336 342 98 93 32 197 320 339 247 325 354 316 333 358 356 17 33 359 341 4 0 358 2 11 53 71 62 38 18 25 214 290 333 250 231 211 219 231 207 187 180 187 191 186 188 189 181 167 181 189 187 209 220 237 245 259 258 151 148 218 236 226 232 230 232 226 216 218 218 215 214 213 213 211 210 210
349 339 322 312 327 328 323 323 330 336 340 344 344 40 79 82 181 42 348 267 270 348 342 293 328 359 17 33 31 11 8 348 353 359 4 16 25 38 43 26 20 19 298 341 25 229 215 222 211 207 218 187 187 195 182 161 174 194 186 171 181 182 185 197 197 219 235 255 261 176 165 206 189 209 222 219 229 225 219 224 223 222 221 217 214 210 209 210
349 343 327 298 309 324 317 310 319 333 337 342 6 80 80 130 231 349 271 252 278 3 319 323 25 33 20 16 12 25 43 345 340 356 31 48 29 9 20 15 12 12 4 202 9 357 242 270 252 293 325 268 202 199 162 146 181 196 172 175 201 183 166 182 198 196 179 222 245 214 205 215 204 253 245 220 231 222 218 227 225 225 224 213 205 204 206 209
349 348 341 299 299 314 312 306 313 330 334 345 48 71 107 157 234 234 220 291 234 135 329 350 32 57 12 352 355 9 24 16 341 343 39 71 45 17 27 23 13 12 23 62 302 360 322 279 310 334 324 300 255 230 176 166 183 179 173 193 198 154 151 202 241 200 121 206 235 214 236 262 250 272 280 213 228 224 219 226 225 227 221 200 196 202 205 206
350 351 355 341 333 324 310 305 312 325 335 16 81 76 197 144 23 337 331 330 283 114 73 46 20 50 17 354 351 356 7 12 347 347 1 52 47 23 17 32 25 9 355 357 266 315 2 284 298 315 287 309 342 321 224 179 160 148 190 190 146 102 154 191 238 259 198 225 260 242 224 224 197 249 280 162 204 226 226 222 225 230 216 196 201 205 205 206
348 349 1 355 347 337 324 310 301 304 356 60 66 55 115 55 22 14 342 325 304 59 72 109 30 73 70 8 324 337 2 17 357 353 336 335 48 58 45 16 19 358 336 338 304 233 22 295 296 280 238 314 338 321 246 196 181 178 176 165 148 154 186 181 204 222 213 232 276 278 239 214 202 224 215 183 201 217 224 224 224 228 213 202 208 209 207 207
348 352 12 354 350 347 345 334 289 191 96 64 49 36 14 356 5 6 357 341 77 80 63 135 63 62 93 103 280 324 15 59 1 344 348 355 356 60 52 15 347 347 333 332 315 260 348 292 282 316 350 327 319 247 215 216 206 194 157 160 170 186 187 183 187 190 198 223 248 275 285 245 227 211 181 192 204 205 213 220 221 222 216 211 212 210 207 205
353 358 8 354 355 357 351 18 74 77 85 72 112 325 327 317 349 3 11 16 67 83 69 151 70 62 347 3 311 332 31 100 14 334 339 13 349 57 54 30 340 337 327 321 301 283 352 90 264 314 347 334 278 222 197 198 209 206 189 177 182 199 188 194 205 174 174 195 206 244 263 253 246 206 180 193 204 202 204 209 214 218 216 215 215 213 208 205
2 0 348 352 0 8 12 68 50 40 83 67 42 297 326 350 348 357 16 31 53 70 84 121 88 106 108 6 353 346 12 89 66 349 313 358 2 9 40 26 346 325 324 318 326 331 343 85 264 302 335 316 264 282 331 29 353 253 236 205 190 185 148 183 226 217 184 197 187 197 251 262 253 210 187 195 202 204 203 201 211 218 212 213 217 216 211 208
10 12 346 352 0 12 44 79 28 16 97 15 345 290 316 348 355 348 8 27 39 41 47 75 72 70 60 2 322 346 30 191 207 167 223 267 292 316 5 10 344 322 324 316 307 312 294 163 290 277 274 263 266 274 282 284 276 248 248 261 223 193 154 185 221 213 196 213 183 184 258 267 250 211 199 203 200 205 207 200 206 221 215 210 215 217 214 211
7 2 358 2 4 16 66 75 9 9 51 342 331 330 336 2 18 359 7 23 20 8 20 34 23 20 17 334 290 359 26 151 194 181 208 251 265 326 350 353 342 331 340 351 312 316 315 343 340 295 284 273 270 270 278 286 268 195 289 339 326 294 278 239 219 178 186 209 186 215 256 261 257 227 218 233 225 207 210 206 208 221 219 211 213 217 216 214
357 354 12 16 16 30 77 67 3 9 5 342 345 6 8 25 28 9 9 24 13 358 31 29 3 19 11 323 330 345 326 100 181 240 252 233 232 31 353 341 342 343 351 350 335 328 321 202 67 5 349 304 282 264 22 6 21 11 321 325 320 334 346 333 256 153 208 210 183 194 243 252 254 263 265 280 284 266 230 220 219 224 222 212 211 215 216 216
356 357 13 21 34 56 77 80 64 75 357 351 354 1 3 12 14 6 1 16 16 12 55 36 354 20 25 345 349 337 327 104 166 260 284 256 254 244 286 325 338 334 322 331 336 329 296 183 102 97 144 219 231 188 210 326 334 321 305 310 321 342 348 336 300 227 235 213 182 190 235 242 197 152 244 254 246 263 266 246 237 237 236 228 218 215 216 215
11 15 350 6 35 54 65 59 46 61 49 7 1 356 4 349 342 355 360 16 17 11 19 36 6 18 21 6 1 333 314 208 258 285 235 252 269 239 252 292 323 322 316 334 346 341 286 202 167 172 191 227 249 266 271 277 290 296 302 306 308 309 312 304 257 244 220 190 200 216 235 247 234 213 235 244 231 232 241 247 242 237 238 239 233 225 220 216
37 47 356 345 12 32 36 29 25 22 336 355 352 330 6 353 324 348 2 12 6 4 6 79 32 37 7 351 344 296 304 298 289 277 241 246 260 262 265 269 290 309 321 343 349 345 298 288 231 201 217 243 262 281 282 276 279 282 289 293 292 292 293 260 240 257 252 182 225 229 237 258 255 233 214 225 237 238 232 227 233 237 240 242 241 234 225 218
51 59 37 24 354 14 21 359 357 353 334 341 42 34 3 4 1 357 353 346 355 7 23 14 13 23 341 331 309 259 298 310 281 277 270 277 294 304 294 258 255 289 349 352 349 345 241 273 241 214 237 250 256 271 274 272 271 267 267 272 277 283 282 259 247 254 251 241 251 240 219 241 258 257 237 218 217 225 232 235 239 245 247 246 242 233 224 217
64 68 21 21 5 262 305 321 333 347 339 334 20 29 347 355 9 352 321 320 331 3 40 347 316 332 328 322 288 233 268 288 281 285 286 283 282 294 295 267 258 358 66 357 339 324 272 265 235 230 263 263 263 271 269 263 262 265 262 260 265 275 276 267 255 245 241 259 279 263 236 237 252 272 283 265 222 228 244 252 253 251 250 246 236 226 219 212
55 41 350 359 345 304 324 335 342 355 349 344 7 343 315 354 7 335 307 294 273 311 20 337 306 314 315 311 285 236 238 232 253 266 265 276 279 255 252 253 228 165 90 41 336 321 296 279 278 299 297 281 274 264 255 256 262 267 269 268 272 285 286 270 252 241 234 245 260 260 256 253 263 353 343 331 352 333 289 292 290 278 262 242 225 216 210 204
29 9 351 353 338 329 347 346 345 358 352 346 353 345 344 359 3 339 304 264 244 273 313 306 305 308 305 304 279 254 267 268 264 268 266 262 255 242 244 236 179 165 183 175 199 319 300 299 334 23 355 288 271 251 284 296 280 255 263 281 287 303 317 299 265 274 241 227 248 257 257 263 314 347 333 342 21 21 360 341 329 318 293 239 215 208 203 198
4 5 26 15 343 344 359 345 352 29 329 314 344 351 336 333 348 348 322 298 297 300 300 298 300 306 306 297 283 287 299 297 286 280 275 265 256 248 246 242 222 201 185 161 177 224 237 282 305 32 260 276 267 303 311 308 285 232 237 279 278 313 346 333 348 12 348 249 235 243 251 295 318 319 321 5 32 32 14 358 344 333 312 250 217 208 202 199
Height
1518 1516 1514 1513 1511 1509 1508 1506 1504 1503 1501 1500 1499 1497 1496 1494 1492 1490 1488 1487 1487 1486 1485 1483 1482 1481 1480 1479 1479 1478 1477 1476 1476 1475 1472 1469 1472 1476 1477 1479 1481 1482 1483 1485 1487 1489 1491 1493 1496 1498 1500 1502 1504 1504 1506 1507 1507 1509 1510 1514 1515 1514 1509 1498 1495 1495 1492 1493 1494 1494 1495 1497 1500 1501 1502 1504 1506 1507 1509 1510 1510 1511 1511 1512 1514 1516 1519 1522
1518 1516 1514 1512 1510 1509 1507 1505 1503 1502 1500 1499 1498 1496 1495 1493 1491 1489 1487 1486 1485 1485 1484 1483 1481 1480 1478 1478 1477 1477 1476 1474 1473 1471 1468 1468 1471 1472 1473 1476 1478 1479 1481 1482 1484 1485 1487 1490 1493 1496 1499 1501 1503 1504 1506 1506 1507 1507 1508 1513 1512 1506 1499 1492 1491 1491 1490 1492 1492 1493 1495 1496 1498 1499 1501 1504 1507 1507 1509 1510 1510 1512 1512 1513 1515 1517 1520 1522
1518 1516 1514 1512 1510 1508 1506 1504 1503 1501 1499 1498 1497 1495 1493 1492 1490 1488 1487 1485 1484 1483 1483 1482 1481 1479 1477 1476 1476 1475 1474 1473 1470 1466 1466 1467 1468 1469 1472 1474 1475 1477 1479 1481 1483 1484 1486 1488 1492 1495 1498 1501 1503 1504 1505 1505 1505 1505 1507 1512 1505 1496 1493 1489 1489 1490 1490 1490 1491 1494 1495 1496 1497 1498 1500 1503 1506 1506 1507 1508 1508 1510 1512 1513 1515 1517 1521 1523
1518 1516 1514 1512 1510 1508 1506 1504 1502 1500 1499 1497 1495 1494 1492 1491 1489 1488 1486 1484 1483 1482 1481 1481 1479 1478 1477 1475 1475 1474 1473 1471 1466 1464 1464 1465 1466 1468 1471 1472 1473 1475 1479 1481 1483 1485 1487 1489 1492 1495 1498 1501 1503 1504 1504 1503 1504 1504 1504 1505 1497 1492 1493 1488 1487 1489 1489 1489 1490 1493 1495 1496 1497 1498 1499 1500 1506 1508 1504 1503 1503 1505 1507 1511 1514 1516 1520 1522
1518 1516 1514 1512 1510 1507 1505 1503 1501 1500 1498 1496 1495 1493 1491 1489 1488 1487 1485 1483 1482 1481 1480 1479 1478 1477 1476 1475 1474 1474 1474 1471 1464 1463 1464 1464 1465 1467 1469 1471 1473 1474 1477 1480 1482 1485 1487 1489 1491 1495 1498 1500 1502 1503 1502 1500 1502 1502 1497 1495 1493 1492 1493 1488 1487 1489 1489 1490 1491 1493 1495 1495 1496 1498 1498 1498 1503 1502 1498 1499 1501 1503 1504 1507 1511 1514 1518 1521
1517 1515 1514 1511 1509 1507 1505 1503 1501 1499 1498 1496 1494 1492 1490 1489 1487 1486 1484 1483 1481 1480 1479 1478 1477 1476 1475 1475 1474 1473 1474 1469 1464 1464 1464 1464 1465 1466 1467 1470 1472 1474 1476 1478 1481 1484 1487 1488 1490 1493 1496 1497 1500 1499 1498 1498 1501 1501 1495 1492 1492 1493 1492 1489 1488 1489 1490 1492 1491 1492 1493 1494 1496 1497 1497 1496 1496 1496 1496 1499 1503 1505 1506 1507 1510 1514 1516 1519
1517 1515 1513 1511 1509 1506 1504 1502 1500 1499 1497 1495 1493 1492 1490 1488 1486 1485 1484 1482 1481 1479 1478 1477 1476 1475 1475 1474 1473 1473 1472 1466 1463 1464 1463 1464 1465 1465 1467 1468 1470 1473 1474 1476 1478 1481 1485 1488 1489 1490 1494 1496 1496 1495 1496 1497 1499 1500 1495 1490 1491 1492 1491 1489 1489 1490 1490 1491 1491 1492 1493 1493 1494 1495 1496 1495 1494 1496 1498 1501 1503 1506 1509 1510 1511 1513 1515 1517
1517 1514 1512 1510 1508 1505 1503 1502 1500 1498 1496 1494 1493 1491 1489 1487 1485 1484 1483 1482 1480 1478 1477 1475 1475 1474 1474 1473 1473 1472 1470 1464 1463 1463 1462 1464 1464 1465 1466 1466 1469 1470 1472 1474 1475 1478 1481 1485 1487 1489 1493 1493 1493 1493 1495 1496 1498 1498 1492 1488 1490 1491 1489 1489 1490 1489 1489 1490 1491 1492 1492 1491 1490 1492 1493 1492 1494 1497 1498 1500 1503 1506 1509 1510 1511 1513 1515 1518
1516 1514 1511 1509 1507 1505 1503 1501 1499 1497 1495 1493 1491 1490 1488 1486 1485 1483 1482 1480 1479 1477 1475 1474 1474 1473 1473 1473 1473 1472 1466 1462 1462 1462 1462 1463 1463 1464 1465 1465 1467 1469 1471 1474 1476 1477 1478 1481 1484 1487 1490 1491 1491 1492 1494 1497 1497 1492 1488 1488 1490 1490 1489 1489 1489 1488 1489 1489 1490 1491 1492 1491 1490 1492 1492 1490 1494 1497 1498 1500 1502 1505 1508 1510 1511 1512 1515 1517
1515 1513 1511 1509 1507 1504 1502 1500 1498 1496 1494 1492 1490 1489 1487 1485 1484 1482 1481 1479 1478 1476 1474 1474 1473 1472 1472 1472 1473 1471 1463 1461 1462 1462 1461 1462 1463 1463 1464 1464 1465 1467 1470 1473 1475 1476 1477 1479 1482 1486 1489 1490 1490 1491 1492 1494 1491 1487 1488 1490 1489 1489 1488 1488 1488 1487 1488 1488 1488 1490 1491 1490 1491 1494 1493 1490 1493 1496 1497 1499 1501 1504 1506 1509 1511 1512 1514 1516
1515 1512 1510 1508 1506 1503 1501 1499 1497 1495 1493 1491 1489 1488 1486 1484 1483 1481 1479 1478 1476 1475 1474 1473 1472 1471 1471 1471 1472 1469 1461 1460 1462 1461 1461 1461 1462 1463 1463 1464 1465 1466 1469 1471 1474 1476 1477 1480 1482 1487 1488 1488 1489 1491 1490 1489 1488 1487 1490 1490 1488 1488 1487 1486 1486 1486 1487 1487 1486 1487 1489 1490 1492 1494 1490 1488 1490 1493 1495 1498 1500 1502 1505 1508 1510 1512 1515 1516
1514 1512 1510 1507 1505 1502 1500 1498 1495 1494 1491 1489 1488 1487 1485 1483 1481 1479 1478 1476 1475 1474 1473 1471 1471 1470 1469 1469 1467 1463 1460 1461 1461 1460 1461 1461 1462 1462 1462 1463 1465 1466 1468 1470 1472 1475 1478 1481 1483 1485 1485 1486 1488 1491 1490 1487 1488 1488 1490 1491 1488 1487 1487 1483 1483 1484 1484 1485 1483 1486 1494 1494 1492 1490 1487 1487 1489 1491 1493 1496 1499 1501 1504 1507 1509 1512 1514 1516
1513 1511 1509 1507 1504 1501 1499 1497 1494 1492 1490 1488 1487 1485 1483 1481 1480 1478 1476 1475 1473 1473 1472 1470 1469 1468 1468 1464 1459 1459 1460 1460 1460 1460 1460 1460 1460 1461 1461 1463 1465 1468 1469 1470 1472 1475 1478 1480 1482 1483 1484 1485 1486 1488 1487 1485 1487 1488 1489 1491 1491 1494 1489 1479 1479 1481 1482 1482 1479 1488 1502 1498 1488 1485 1485 1486 1488 1490 1493 1495 1497 1500 1503 1506 1508 1511 1513 1516
1513 1510 1508 1506 1503 1501 1498 1496 1493 1491 1489 1487 1485 1484 1482 1480 1478 1476 1474 1473 1472 1472 1470 1470 1468 1466 1465 1460 1455 1457 1457 1458 1459 1459 1459 1459 1459 1460 1460 1461 1465 1468 1470 1472 1474 1476 1479 1481 1483 1484 1485 1485 1484 1485 1486 1485 1487 1487 1489 1491 1493 1501 1493 1477 1476 1479 1481 1481 1476 1486 1501 1495 1485 1483 1484 1485 1486 1488 1492 1494 1496 1499 1501 1504 1506 1509 1511 1513
1512 1510 1507 1505 1503 1500 1497 1495 1492 1490 1488 1486 1484 1483 1480 1478 1476 1474 1473 1472 1472 1471 1469 1468 1466 1465 1463 1456 1454 1456 1455 1456 1458 1457 1458 1458 1458 1459 1460 1461 1464 1468 1470 1473 1476 1478 1480 1483 1484 1485 1484 1484 1485 1487 1488 1489 1487 1486 1492 1495 1494 1499 1492 1478 1475 1476 1479 1480 1476 1485 1497 1491 1483 1481 1481 1483 1485 1486 1489 1492 1495 1497 1499 1502 1504 1506 1509 1511
1512 1509 1506 1504 1502 1499 1496 1494 1491 1489 1487 1484 1483 1481 1478 1477 1475 1473 1472 1472 1472 1470 1467 1466 1464 1464 1463 1457 1455 1456 1456 1456 1456 1456 1456 1457 1458 1459 1460 1462 1464 1468 1471 1474 1476 1478 1481 1483 1484 1484 1484 1485 1486 1489 1492 1495 1493 1489 1492 1496 1494 1495 1492 1484 1477 1472 1474 1477 1477 1483 1489 1487 1481 1478 1480 1482 1483 1485 1487 1490 1493 1495 1497 1499 1502 1504 1507 1510
1511 1509 1506 1503 1501 1498 1495 1493 1490 1488 1486 1483 1482 1480 1477 1475 1473 1472 1472 1472 1471 1468 1466 1465 1464 1463 1460 1457 1457 1457 1456 1455 1455 1455 1456 1457 1457 1457 1460 1461 1463 1467 1470 1474 1477 1478 1480 1483 1483 1484 1483 1484 1485 1488 1498 1503 1500 1494 1492 1493 1491 1490 1490 1488 1481 1473 1471 1476 1480 1481 1483 1483 1478 1476 1479 1481 1482 1484 1486 1488 1490 1492 1495 1497 1500 1503 1504 1507
1511 1508 1505 1503 1500 1497 1494 1492 1489 1487 1485 1483 1480 1478 1476 1474 1472 1471 1471 1471 1469 1467 1466 1465 1464 1463 1459 1457 1458 1457 1455 1454 1454 1454 1455 1455 1455 1456 1458 1460 1462 1466 1470 1475 1476 1477 1480 1481 1482 1484 1483 1485 1484 1487 1496 1497 1492 1493 1493 1493 1491 1488 1487 1487 1482 1475 1473 1476 1480 1482 1483 1480 1477 1477 1477 1478 1480 1482 1482 1484 1487 1489 1492 1495 1498 1500 1502 1503
1510 1507 1504 1501 1499 1497 1494 1492 1489 1487 1485 1482 1480 1478 1476 1473 1471 1471 1471 1471 1469 1468 1468 1467 1467 1468 1465 1460 1459 1457 1453 1452 1453 1454 1455 1454 1454 1456 1458 1460 1462 1464 1470 1474 1475 1475 1478 1480 1483 1485 1482 1480 1479 1479 1485 1484 1482 1486 1488 1489 1490 1488 1486 1483 1480 1475 1474 1479 1481 1482 1483 1479 1478 1479 1477 1477 1479 1479 1481 1483 1486 1488 1490 1493 1495 1497 1499 1500
1509 1505 1503 1500 1498 1496 1493 1491 1489 1487 1484 1482 1480 1476 1474 1474 1472 1471 1470 1470 1470 1470 1470 1469 1469 1470 1467 1462 1458 1456 1451 1450 1451 1453 1454 1454 1454 1456 1458 1460 1461 1464 1467 1470 1473 1473 1475 1480 1481 1476 1472 1471 1473 1476 1479 1480 1480 1483 1485 1486 1486 1486 1485 1479 1477 1473 1471 1480 1482 1479 1479 1477 1476 1476 1474 1476 1478 1479 1481 1483 1484 1486 1488 1490 1492 1494 1496 1496
1508 1504 1501 1499 1497 1495 1493 1491 1490 1487 1485 1483 1480 1477 1479 1481 1480 1477 1473 1469 1469 1470 1469 1468 1469 1468 1465 1462 1459 1456 1453 1450 1450 1453 1454 1454 1455 1456 1458 1458 1460 1464 1465 1466 1471 1472 1475 1480 1473 1465 1467 1471 1474 1477 1479 1481 1481 1483 1485 1486 1486 1486 1484 1477 1476 1474 1470 1478 1480 1476 1479 1478 1474 1474 1472 1474 1477 1477 1478 1479 1481 1483 1485 1487 1488 1490 1491 1493
1507 1503 1500 1498 1496 1494 1493 1491 1490 1488 1486 1485 1482 1481 1484 1486 1486 1484 1480 1474 1469 1467 1468 1467 1468 1467 1464 1462 1459 1458 1456 1453 1452 1453 1454 1455 1455 1456 1457 1457 1459 1461 1463 1465 1470 1474 1478 1474 1462 1461 1468 1472 1474 1475 1478 1481 1481 1483 1485 1488 1489 1485 1483 1478 1474 1472 1472 1477 1479 1476 1479 1477 1471 1471 1471 1470 1471 1471 1471 1472 1474 1477 1481 1484 1485 1486 1488 1493
1507 1502 1499 1497 1495 1494 1492 1491 1490 1488 1487 1486 1484 1484 1486 1486 1485 1484 1483 1480 1472 1467 1468 1468 1467 1466 1463 1462 1460 1458 1458 1456 1455 1454 1454 1455 1455 1456 1456 1456 1458 1459 1462 1463 1466 1474 1476 1465 1456 1463 1469 1470 1474 1475 1476 1480 1481 1482 1484 1488 1489 1483 1483 1482 1476 1473 1473 1474 1476 1475 1477 1475 1469 1471 1471 1467 1466 1466 1468 1469 1470 1473 1474 1475 1478 1481 1486 1489
1505 1501 1498 1495 1494 1493 1491 1491 1490 1488 1487 1486 1486 1486 1486 1485 1485 1483 1482 1480 1476 1469 1468 1468 1467 1466 1464 1462 1460 1459 1458 1457 1457 1455 1455 1454 1454 1455 1455 1455 1457 1459 1459 1460 1461 1466 1465 1456 1455 1464 1468 1469 1473 1474 1475 1479 1481 1480 1480 1483 1485 1481 1481 1481 1478 1475 1473 1472 1472 1475 1482 1477 1470 1473 1472 1467 1467 1468 1469 1471 1473 1474 1473 1474 1478 1482 1485 1486
1504 1500 1496 1494 1493 1491 1490 1490 1489 1488 1488 1487 1486 1486 1485 1484 1483 1482 1481 1480 1477 1471 1468 1469 1468 1467 1465 1463 1462 1460 1458 1457 1456 1456 1455 1454 1454 1454 1453 1453 1456 1457 1458 1459 1463 1464 1460 1455 1456 1460 1464 1467 1471 1472 1473 1476 1481 1481 1476 1475 1478 1479 1480 1481 1479 1479 1482 1483 1474 1475 1491 1486 1469 1471 1470 1466 1469 1470 1469 1471 1471 1471 1473 1477 1479 1479 1482 1484
1503 1499 1495 1493 1491 1490 1490 1489 1488 1488 1487 1486 1486 1485 1485 1483 1481 1481 1481 1483 1479 1471 1469 1470 1469 1468 1466 1464 1461 1458 1459 1457 1455 1456 1454 1453 1453 1452 1453 1451 1451 1454 1456 1458 1462 1461 1456 1455 1457 1458 1461 1465 1469 1471 1469 1471 1481 1482 1471 1469 1474 1476 1479 1481 1480 1483 1489 1489 1476 1472 1490 1490 1474 1469 1466 1464 1467 1467 1467 1468 1466 1468 1472 1474 1474 1475 1477 1480
1502 1498 1495 1492 1490 1489 1489 1488 1488 1487 1486 1486 1485 1484 1483 1481 1480 1479 1480 1486 1483 1473 1472 1472 1470 1470 1468 1467 1462 1459 1465 1462 1454 1454 1453 1451 1451 1450 1453 1452 1450 1451 1451 1457 1464 1457 1451 1455 1458 1458 1460 1464 1467 1468 1465 1467 1477 1476 1465 1467 1473 1475 1479 1481 1481 1485 1485 1482 1478 1473 1480 1488 1481 1468 1461 1463 1466 1466 1466 1465 1462 1465 1469 1469 1469 1471 1473 1476
1501 1497 1495 1492 1490 1489 1489 1488 1488 1487 1486 1486 1484 1483 1481 1479 1479 1479 1481 1488 1484 1474 1475 1474 1471 1471 1469 1469 1465 1463 1468 1465 1458 1456 1452 1450 1450 1448 1451 1451 1450 1451 1447 1454 1462 1452 1446 1452 1455 1456 1461 1462 1460 1459 1459 1463 1470 1467 1462 1465 1470 1473 1476 1478 1481 1484 1482 1485 1488 1478 1476 1489 1487 1466 1458 1462 1466 1468 1466 1461 1460 1461 1463 1463 1465 1467 1469 1472
1500 1497 1494 1492 1490 1489 1489 1488 1487 1486 1486 1485 1483 1482 1479 1478 1478 1478 1484 1489 1483 1476 1478 1476 1472 1472 1470 1468 1467 1466 1466 1465 1463 1459 1452 1450 1448 1446 1449 1449 1449 1451 1447 1448 1454 1449 1444 1446 1449 1453 1457 1456 1453 1453 1455 1460 1464 1461 1461 1464 1467 1471 1473 1476 1481 1482 1484 1492 1492 1480 1476 1488 1487 1467 1459 1464 1464 1464 1461 1457 1457 1457 1457 1458 1460 1462 1465 1469
1500 1497 1494 1492 1490 1489 1489 1488 1487 1486 1485 1483 1482 1480 1478 1478 1479 1483 1491 1490 1482 1480 1480 1476 1475 1474 1471 1469 1468 1467 1466 1466 1464 1459 1453 1451 1448 1445 1447 1447 1448 1449 1448 1446 1447 1446 1443 1442 1445 1446 1447 1449 1450 1452 1453 1455 1458 1459 1462 1467 1469 1472 1473 1476 1478 1480 1490 1493 1483 1475 1473 1483 1488 1469 1458 1459 1455 1452 1454 1454 1454 1453 1455 1457 1458 1460 1463 1467
1500 1497 1494 1492 1490 1489 1488 1487 1486 1485 1484 1482 1481 1479 1479 1479 1481 1488 1492 1486 1483 1482 1479 1478 1478 1476 1474 1473 1473 1471 1468 1467 1464 1461 1459 1455 1453 1451 1451 1454 1455 1452 1449 1449 1448 1445 1443 1444 1443 1440 1441 1445 1448 1452 1452 1452 1454 1459 1463 1468 1476 1480 1478 1482 1483 1485 1497 1491 1473 1469 1469 1478 1485 1468 1453 1451 1444 1442 1446 1448 1449 1449 1451 1452 1454 1457 1459 1462
1499 1496 1494 1492 1490 1489 1488 1486 1485 1484 1482 1481 1479 1477 1479 1482 1486 1492 1491 1485 1486 1486 1482 1482 1480 1478 1477 1476 1477 1475 1472 1470 1467 1466 1467 1465 1464 1465 1467 1471 1471 1463 1456 1454 1452 1448 1445 1443 1441 1439 1438 1440 1447 1453 1455 1454 1455 1460 1464 1470 1484 1492 1492 1496 1495 1490 1491 1482 1466 1465 1470 1475 1473 1457 1447 1446 1440 1437 1438 1439 1441 1442 1443 1445 1447 1451 1454 1457
1499 1495 1493 1492 1490 1489 1488 1486 1485 1483 1481 1479 1477 1476 1478 1484 1491 1494 1491 1488 1489 1485 1482 1483 1481 1480 1479 1478 1480 1479 1475 1475 1472 1470 1470 1470 1472 1474 1475 1476 1474 1471 1466 1462 1459 1453 1448 1443 1439 1440 1438 1435 1441 1449 1456 1458 1457 1460 1465 1470 1483 1494 1500 1505 1500 1491 1487 1477 1463 1461 1470 1474 1465 1448 1440 1437 1434 1433 1433 1434 1435 1435 1436 1438 1441 1446 1451 1454
1497 1493 1491 1491 1489 1488 1487 1486 1485 1483 1481 1478 1476 1475 1480 1489 1493 1492 1490 1489 1487 1484 1483 1483 1482 1481 1480 1481 1483 1481 1479 1479 1475 1474 1473 1473 1476 1477 1477 1475 1472 1473 1472 1470 1468 1463 1461 1454 1441 1439 1439 1435 1436 1441 1446 1451 1454 1456 1456 1463 1473 1479 1487 1496 1494 1490 1486 1477 1465 1464 1470 1469 1457 1442 1431 1426 1425 1427 1430 1430 1431 1432 1432 1435 1440 1446 1451 1454
1496 1492 1490 1489 1489 1488 1486 1486 1485 1483 1482 1479 1476 1479 1486 1494 1494 1492 1491 1489 1486 1485 1485 1484 1483 1484 1484 1484 1484 1481 1482 1482 1478 1477 1477 1478 1482 1482 1481 1480 1476 1476 1474 1473 1473 1472 1470 1459 1442 1437 1439 1436 1435 1435 1436 1444 1453 1452 1450 1459 1466 1462 1466 1476 1479 1476 1476 1475 1467 1462 1462 1453 1442 1432 1424 1423 1423 1422 1426 1426 1427 1429 1429 1434 1440 1443 1446 1449
1494 1491 1488 1487 1488 1487 1486 1485 1484 1483 1482 1479 1481 1486 1491 1493 1492 1491 1489 1486 1486 1486 1486 1485 1485 1487 1489 1488 1486 1483 1483 1483 1481 1481 1479 1481 1485 1485 1484 1485 1481 1479 1479 1479 1479 1479 1475 1460 1444 1443 1440 1434 1436 1434 1431 1438 1448 1450 1452 1456 1454 1449 1454 1468 1475 1469 1470 1477 1466 1454 1452 1445 1438 1433 1424 1423 1425 1422 1423 1424 1424 1425 1426 1432 1435 1436 1439 1442
1492 1489 1488 1487 1487 1485 1484 1484 1483 1483 1482 1481 1484 1490 1490 1490 1489 1489 1487 1486 1485 1485 1486 1489 1488 1489 1492 1491 1490 1487 1484 1484 1484 1485 1483 1482 1487 1487 1485 1486 1483 1481 1481 1482 1480 1478 1479 1467 1450 1447 1443 1435 1435 1435 1429 1429 1435 1445 1452 1447 1444 1449 1452 1460 1474 1474 1475 1480 1466 1451 1451 1448 1445 1440 1428 1425 1428 1424 1423 1423 1422 1422 1424 1429 1430 1430 1433 1435
1491 1489 1488 1487 1486 1484 1482 1482 1482 1482 1482 1483 1487 1490 1489 1490 1489 1488 1487 1485 1485 1485 1488 1492 1491 1490 1492 1493 1492 1488 1486 1488 1488 1488 1487 1485 1488 1489 1487 1486 1485 1482 1479 1480 1478 1474 1478 1474 1456 1446 1447 1441 1435 1435 1434 1429 1427 1433 1439 1436 1442 1457 1460 1459 1470 1475 1477 1481 1469 1455 1453 1446 1441 1437 1429 1427 1427 1423 1421 1421 1421 1421 1422 1424 1425 1426 1429 1431
1491 1489 1488 1488 1486 1483 1482 1481 1481 1481 1482 1487 1492 1493 1491 1491 1489 1488 1488 1486 1485 1487 1489 1491 1491 1491 1492 1492 1493 1490 1488 1490 1490 1490 1490 1488 1488 1487 1486 1487 1486 1483 1479 1478 1478 1474 1475 1478 1463 1447 1447 1447 1439 1437 1438 1434 1429 1429 1432 1433 1436 1445 1451 1454 1458 1460 1468 1476 1470 1461 1456 1445 1433 1426 1423 1424 1421 1418 1419 1418 1418 1418 1417 1419 1420 1422 1425 1428
1492 1488 1489 1488 1485 1483 1482 1481 1481 1482 1485 1491 1495 1494 1492 1491 1490 1488 1487 1486 1486 1487 1489 1490 1490 1492 1492 1491 1492 1491 1490 1491 1491 1491 1491 1490 1489 1487 1486 1487 1486 1483 1479 1476 1477 1474 1473 1478 1472 1455 1449 1449 1442 1437 1436 1435 1436 1435 1436 1438 1438 1437 1440 1446 1448 1446 1454 1466 1466 1463 1458 1440 1422 1416 1415 1415 1414 1412 1413 1412 1413 1412 1412 1414 1415 1417 1421 1423
1492 1490 1490 1488 1486 1484 1482 1483 1485 1488 1491 1495 1496 1495 1494 1492 1490 1489 1488 1487 1487 1487 1488 1489 1490 1492 1492 1492 1492 1491 1491 1492 1492 1493 1493 1491 1491 1489 1486 1486 1486 1483 1481 1478 1476 1476 1474 1477 1477 1469 1463 1459 1447 1438 1437 1439 1443 1443 1440 1437 1436 1436 1440 1451 1456 1446 1442 1451 1453 1457 1457 1436 1414 1409 1409 1408 1408 1406 1405 1406 1407 1406 1407 1410 1411 1413 1416 1418
1493 1493 1492 1489 1487 1485 1483 1487 1492 1493 1495 1497 1497 1497 1495 1493 1492 1491 1489 1488 1488 1488 1488 1489 1490 1491 1492 1492 1492 1491 1492 1493 1493 1493 1494 1492 1490 1489 1486 1485 1485 1482 1481 1480 1477 1474 1473 1475 1477 1475 1469 1460 1447 1437 1438 1442 1443 1443 1442 1436 1432 1433 1435 1446 1455 1446 1441 1444 1442 1446 1452 1431 1408 1405 1405 1402 1403 1401 1400 1402 1402 1402 1404 1407 1408 1409 1412 1414
1495 1496 1494 1490 1488 1485 1486 1492 1497 1498 1498 1498 1497 1496 1495 1494 1494 1493 1492 1491 1490 1490 1490 1491 1492 1492 1493 1492 1491 1491 1491 1492 1493 1492 1493 1492 1489 1487 1486 1485 1484 1481 1480 1480 1478 1474 1473 1474 1476 1473 1462 1449 1440 1435 1436 1438 1440 1442 1444 1443 1441 1438 1435 1435 1438 1437 1440 1442 1440 1448 1451 1426 1405 1403 1403 1401 1401 1401 1400 1399 1399 1400 1401 1404 1407 1408 1410 1412
1497 1497 1495 1493 1489 1486 1490 1499 1503 1502 1502 1499 1497 1497 1496 1495 1496 1495 1495 1494 1493 1493 1493 1493 1494 1494 1494 1493 1491 1491 1491 1492 1493 1491 1491 1491 1489 1486 1486 1485 1484 1482 1480 1481 1479 1477 1477 1476 1477 1476 1466 1451 1440 1438 1439 1442 1447 1452 1454 1452 1448 1445 1444 1438 1430 1431 1436 1433 1433 1446 1446 1421 1404 1404 1403 1401 1402 1401 1401 1400 1399 1399 1399 1401 1404 1405 1407 1409
1499 1498 1497 1496 1492 1489 1495 1503 1505 1504 1505 1503 1501 1500 1498 1497 1497 1497 1497 1496 1495 1495 1494 1495 1495 1494 1494 1493 1492 1491 1491 1492 1493 1492 1490 1491 1488 1485 1485 1484 1483 1481 1480 1480 1478 1477 1478 1476 1476 1479 1476 1464 1454 1454 1461 1465 1464 1461 1456 1453 1451 1451 1452 1446 1439 1438 1437 1429 1426 1433 1429 1413 1404 1404 1402 1401 1402 1401 1401 1400 1400 1399 1398 1400 1402 1403 1404 1406
1502 1501 1500 1499 1496 1495 1500 1504 1504 1505 1506 1506 1504 1502 1502 1501 1499 1497 1497 1497 1496 1495 1495 1496 1495 1494 1494 1494 1494 1493 1492 1491 1492 1492 1491 1490 1488 1485 1484 1484 1483 1481 1479 1478 1477 1477 1476 1474 1474 1477 1477 1472 1469 1470 1474 1476 1473 1466 1459 1455 1454 1453 1453 1452 1452 1445 1433 1428 1427 1422 1415 1409 1405 1403 1402 1400 1401 1402 1401 1400 1399 1398 1397 1398 1399 1400 1402 1403
1505 1506 1507 1504 1501 1501 1503 1504 1504 1505 1506 1507 1506 1504 1504 1504 1501 1499 1497 1497 1497 1496 1496 1496 1496 1497 1498 1498 1497 1496 1493 1492 1492 1491 1490 1489 1487 1485 1484 1483 1482 1481 1479 1478 1477 1477 1478 1476 1474 1474 1475 1473 1472 1472 1471 1471 1471 1468 1463 1458 1452 1451 1451 1453 1453 1442 1429 1428 1427 1416 1410 1410 1402 1398 1401 1400 1398 1399 1399 1397 1396 1395 1394 1395 1395 1396 1398 1399
1507 1509 1509 1509 1507 1507 1507 1506 1506 1507 1506 1506 1505 1505 1505 1506 1504 1503 1501 1498 1498 1497 1497 1497 1497 1498 1499 1499 1499 1497 1494 1494 1493 1491 1489 1488 1487 1486 1485 1483 1481 1480 1478 1478 1478 1478 1479 1478 1473 1472 1473 1471 1470 1470 1468 1469 1469 1465 1463 1458 1452 1449 1449 1448 1446 1438 1431 1428 1421 1411 1409 1407 1395 1389 1394 1395 1394 1394 1393 1392 1391 1391 1390 1390 1391 1392 1393 1394
1508 1510 1509 1509 1510 1510 1510 1509 1508 1508 1507 1505 1505 1506 1507 1507 1506 1506 1503 1501 1500 1499 1499 1500 1499 1498 1497 1497 1497 1497 1495 1495 1495 1491 1489 1489 1488 1488 1486 1483 1481 1480 1478 1479 1478 1478 1480 1478 1472 1472 1473 1470 1469 1467 1465 1465 1465 1461 1457 1453 1448 1445 1443 1440 1437 1433 1430 1428 1419 1409 1405 1400 1391 1388 1389 1389 1390 1389 1387 1387 1388 1387 1386 1386 1386 1386 1386 1387
1510 1511 1510 1510 1510 1509 1510 1509 1509 1509 1508 1506 1507 1507 1506 1506 1507 1506 1503 1502 1502 1500 1499 1500 1499 1497 1496 1495 1496 1495 1493 1493 1494 1492 1490 1489 1489 1488 1486 1483 1481 1480 1479 1479 1478 1479 1481 1477 1470 1471 1473 1468 1464 1462 1461 1462 1463 1459 1453 1447 1445 1442 1437 1433 1430 1426 1426 1425 1417 1411 1407 1399 1390 1390 1390 1387 1387 1386 1386 1386 1385 1383 1383 1381 1380 1380 1380 1382
1511 1511 1511 1511 1511 1510 1510 1510 1510 1510 1509 1508 1508 1507 1506 1506 1506 1506 1503 1501 1501 1500 1499 1499 1498 1496 1495 1494 1494 1493 1491 1490 1490 1488 1487 1487 1486 1485 1483 1480 1479 1480 1480 1480 1480 1480 1481 1478 1472 1472 1473 1467 1461 1461 1461 1460 1458 1456 1451 1445 1444 1443 1437 1431 1428 1425 1424 1420 1412 1408 1407 1400 1393 1393 1392 1388 1386 1387 1387 1386 1384 1381 1379 1377 1376 1376 1377 1379
1511 1512 1512 1512 1512 1511 1510 1511 1511 1511 1510 1509 1508 1507 1507 1506 1505 1506 1505 1501 1499 1499 1499 1497 1496 1495 1494 1493 1491 1490 1488 1487 1485 1483 1482 1481 1479 1479 1479 1477 1476 1478 1478 1479 1480 1480 1481 1481 1476 1474 1472 1466 1461 1462 1463 1459 1454 1449 1445 1443 1442 1441 1438 1433 1429 1426 1425 1422 1415 1409 1405 1401 1399 1397 1394 1390 1388 1388 1387 1387 1385 1381 1377 1374 1374 1374 1375 1376